Starlink 30811

operational
NORAD ID: 58167 Int'l Des: 2023-166 Owner: SPXS Country: US Constellation: starlink
LEOCIRCULAR

Starlink 30811について

説明を読み込み中...

リアルタイム位置

3D地球を読み込み中...

次回通過

高度履歴

Altitude vs Time

uPlot chart will show altitude changes over time

軌道要素

1 58167U 23166T 25354.66765147 .00002165 00000-0 85209-4 0 9998
2 58167 53.1597 226.4506 0000967 99.0366 261.0745 15.30200322120937
Epoch: Dec 20, 2025 • Age: 10 hours

現在のステータス

高度 476.1 km
速度 7.63 km/s
衛星直下点 26.50°N, 132.89°E
打ち上げ日 Oct 29, 2023
運用期間 2.1 years
タイプ internet

技術仕様

分類 Payload
質量 730.00 kg
乾燥質量 700.00 kg
総質量 730.00 kg
長さ 0.30 m
直径 4.10 m
スパン 29.00 m
形状 Box + pan
製造者 SPXS
バスタイプ Starlink V2M
フェーズステータス In Orbit
所有者/国 SPXS/US

大規模コンステレーション

Loading constellations...